Precipitable_Water
0.70 0.70 0.70 0.71 0.73 0.74 0.73 0.76 0.76 0.77 0.79 0.80 0.77 0.71 0.69 0.66 0.67 0.69 0.69 0.72 0.57 0.47 0.55 0.58 0.53 0.44 0.47 0.44 0.37 0.47 0.43 0.46 0.40 0.33 0.28 0.27 0.25 0.26 0.28 0.34 0.37 0.37 0.35 0.32 0.34 0.30 0.29 0.52 0.52 0.47 0.63 0.76 0.80 0.76
0.68 0.69 0.69 0.71 0.71 0.72 0.72 0.73 0.76 0.76 0.79 0.78 0.76 0.71 0.71 0.67 0.68 0.72 0.63 0.73 0.71 0.54 0.54 0.63 0.61 0.58 0.53 0.52 0.46 0.47 0.44 0.47 0.45 0.36 0.35 0.32 0.28 0.31 0.29 0.26 0.36 0.33 0.42 0.42 0.40 0.37 0.46 0.50 0.53 0.64 0.90 0.90 0.81 0.75
0.64 0.65 0.70 0.70 0.68 0.69 0.72 0.71 0.75 0.79 0.78 0.77 0.75 0.72 0.72 0.69 0.70 0.70 0.67 0.71 0.66 0.54 0.52 0.53 0.54 0.64 0.64 0.59 0.59 0.42 0.48 0.53 0.50 0.51 0.47 0.47 0.37 0.35 0.29 0.30 0.34 0.37 0.40 0.41 0.45 0.48 0.51 0.50 0.54 0.77 0.90 0.96 0.84 0.80
0.66 0.67 0.69 0.70 0.69 0.70 0.69 0.71 0.74 0.78 0.78 0.77 0.77 0.75 0.69 0.72 0.72 0.72 0.67 0.71 0.68 0.59 0.44 0.52 0.63 0.58 0.63 0.60 0.59 0.58 0.52 0.56 0.52 0.51 0.43 0.44 0.43 0.43 0.37 0.39 0.39 0.41 0.44 0.40 0.41 0.50 0.59 0.60 0.79 0.81 0.75 0.83 0.76 0.76
0.68 0.69 0.71 0.72 0.69 0.70 0.70 0.71 0.73 0.77 0.77 0.78 0.79 0.75 0.68 0.73 0.73 0.74 0.75 0.76 0.80 0.63 0.52 0.56 0.65 0.65 0.67 0.66 0.61 0.60 0.56 0.53 0.49 0.44 0.41 0.36 0.45 0.47 0.45 0.44 0.40 0.47 0.45 0.42 0.42 0.51 0.54 0.62 0.83 0.85 0.73 0.67 0.67 0.66
0.72 0.72 0.73 0.73 0.71 0.71 0.73 0.73 0.74 0.76 0.78 0.78 0.78 0.77 0.71 0.74 0.75 0.73 0.60 0.82 0.88 0.80 0.58 0.45 0.64 0.60 0.64 0.64 0.63 0.63 0.62 0.59 0.55 0.46 0.42 0.45 0.46 0.41 0.37 0.36 0.44 0.48 0.49 0.49 0.48 0.57 0.59 0.63 0.64 0.89 0.82 0.73 0.66 0.60
0.73 0.74 0.74 0.72 0.72 0.73 0.75 0.77 0.78 0.78 0.79 0.81 0.80 0.77 0.76 0.76 0.74 0.66 0.67 0.84 0.90 0.83 0.61 0.48 0.48 0.59 0.57 0.58 0.57 0.61 0.66 0.62 0.57 0.51 0.46 0.47 0.48 0.47 0.39 0.34 0.44 0.46 0.50 0.50 0.50 0.49 0.47 0.49 0.49 0.58 0.84 0.88 0.74 0.62
0.74 0.74 0.75 0.72 0.72 0.74 0.77 0.77 0.80 0.81 0.82 0.80 0.80 0.82 0.84 0.82 0.78 0.69 0.80 0.85 0.84 0.77 0.70 0.48 0.48 0.54 0.66 0.56 0.54 0.65 0.62 0.62 0.57 0.53 0.53 0.49 0.50 0.48 0.38 0.41 0.47 0.49 0.50 0.47 0.46 0.47 0.47 0.49 0.49 0.48 0.51 0.55 0.62 0.58
0.73 0.75 0.74 0.72 0.72 0.75 0.76 0.75 0.79 0.80 0.84 0.84 0.85 0.83 0.82 0.79 0.75 0.85 0.91 0.89 0.88 0.72 0.56 0.53 0.47 0.49 0.68 0.64 0.68 0.65 0.65 0.51 0.62 0.51 0.51 0.51 0.45 0.37 0.38 0.43 0.44 0.49 0.50 0.54 0.55 0.51 0.49 0.46 0.48 0.47 0.47 0.45 0.41 0.43
0.69 0.70 0.70 0.72 0.75 0.76 0.73 0.76 0.79 0.85 0.88 0.86 0.80 0.78 0.68 0.85 0.93 0.87 0.78 0.69 0.70 0.72 0.69 0.55 0.61 0.54 0.65 0.64 0.61 0.62 0.67 0.59 0.51 0.56 0.62 0.47 0.39 0.46 0.50 0.53 0.56 0.57 0.58 0.66 0.58 0.56 0.57 0.55 0.54 0.53 0.50 0.50 0.46 0.43
0.74 0.75 0.77 0.79 0.78 0.76 0.77 0.83 0.87 0.86 0.81 0.78 0.76 0.73 0.85 0.90 0.82 0.75 0.62 0.58 0.58 0.51 0.59 0.59 0.58 0.53 0.69 0.55 0.57 0.66 0.59 0.61 0.48 0.55 0.54 0.48 0.43 0.50 0.57 0.53 0.57 0.62 0.64 0.63 0.66 0.71 0.73 0.71 0.68 0.63 0.61 0.59 0.55 0.53
0.79 0.81 0.83 0.85 0.83 0.80 0.82 0.87 0.87 0.82 0.85 0.83 0.80 0.85 0.85 0.76 0.69 0.58 0.54 0.56 0.50 0.49 0.59 0.56 0.61 0.66 0.69 0.73 0.61 0.62 0.53 0.55 0.42 0.62 0.51 0.42 0.59 0.68 0.67 0.62 0.63 0.66 0.74 0.74 0.75 0.72 0.72 0.73 0.72 0.69 0.66 0.62 0.61 0.60
0.84 0.88 0.90 0.91 0.91 0.88 0.87 0.89 0.92 0.91 0.93 0.90 0.77 0.66 0.64 0.65 0.51 0.46 0.39 0.44 0.46 0.58 0.65 0.65 0.59 0.66 0.69 0.70 0.60 0.56 0.47 0.44 0.60 0.49 0.44 0.48 0.59 0.75 0.79 0.79 0.79 0.88 0.84 0.81 0.79 0.77 0.73 0.72 0.75 0.73 0.69 0.70 0.67 0.64
0.86 0.94 0.96 0.96 0.96 0.95 0.94 0.92 0.91 0.94 0.89 0.72 0.64 0.52 0.54 0.51 0.52 0.52 0.53 0.54 0.64 0.67 0.68 0.66 0.65 0.62 0.65 0.57 0.57 0.47 0.53 0.56 0.45 0.43 0.45 0.59 0.75 0.80 0.88 0.94 0.90 0.85 0.83 0.79 0.76 0.75 0.73 0.74 0.72 0.75 0.76 0.77 0.74 0.67
0.86 0.94 0.98 0.98 1.00 1.01 1.01 1.00 1.00 1.00 0.83 0.68 0.65 0.50 0.54 0.64 0.67 0.67 0.68 0.67 0.69 0.72 0.70 0.66 0.65 0.64 0.62 0.57 0.58 0.55 0.49 0.45 0.48 0.47 0.61 0.77 0.85 0.89 0.89 0.89 0.88 0.85 0.82 0.80 0.81 0.79 0.78 0.79 0.77 0.75 0.82 0.83 0.79 0.74
0.84 0.89 0.92 0.93 0.96 0.97 1.00 1.01 0.99 0.95 0.83 0.72 0.67 0.60 0.66 0.62 0.63 0.68 0.69 0.67 0.75 0.72 0.71 0.65 0.55 0.52 0.55 0.58 0.53 0.50 0.48 0.45 0.52 0.68 0.77 0.81 0.81 0.82 0.82 0.86 0.89 0.91 0.90 0.93 0.94 0.91 0.88 0.87 0.83 0.78 0.81 0.84 0.84 0.82
0.92 0.91 0.97 1.01 1.03 1.03 1.06 0.99 0.91 0.78 0.72 0.69 0.65 0.73 0.70 0.67 0.66 0.69 0.72 0.72 0.79 0.70 0.59 0.61 0.52 0.50 0.62 0.52 0.51 0.59 0.54 0.63 0.75 0.81 0.85 0.87 0.88 0.88 0.92 0.94 0.91 0.96 0.96 0.98 0.97 0.93 0.89 0.90 0.91 0.86 0.78 0.74 0.88 0.87
0.97 1.05 1.07 1.05 1.05 1.06 1.02 0.96 0.83 0.76 0.65 0.71 0.66 0.71 0.75 0.76 0.73 0.74 0.78 0.80 0.75 0.69 0.67 0.59 0.66 0.55 0.51 0.50 0.56 0.68 0.73 0.79 0.83 0.87 0.90 0.93 0.96 0.99 1.01 1.00 0.98 1.02 1.04 1.05 1.03 1.00 0.90 0.92 0.90 0.85 0.86 0.80 0.74 0.76
1.00 1.02 1.05 1.09 1.08 0.98 0.85 0.85 0.87 0.68 0.72 0.77 0.78 0.80 0.79 0.80 0.84 0.85 0.84 0.85 0.85 0.83 0.74 0.67 0.58 0.55 0.58 0.66 0.67 0.73 0.79 0.83 0.85 0.90 0.94 1.00 1.02 1.03 1.05 1.07 1.09 1.10 1.10 1.07 1.02 0.98 1.04 0.97 0.83 0.83 0.93 0.82 0.69 0.66
1.05 1.06 1.07 1.08 1.08 0.88 0.78 0.80 0.91 0.75 0.69 0.75 0.82 0.79 0.80 0.79 0.83 0.83 0.83 0.82 0.79 0.74 0.66 0.61 0.63 0.69 0.71 0.77 0.84 0.85 0.90 0.94 0.94 0.88 0.92 1.00 1.07 1.06 1.09 1.08 1.08 1.08 1.13 1.10 1.10 1.01 0.91 0.76 0.84 0.80 0.77 0.79 0.65 0.61
1.03 1.04 1.05 1.04 0.95 0.92 0.82 0.79 0.76 0.78 0.79 0.76 0.82 0.82 0.79 0.84 0.79 0.77 0.76 0.84 0.73 0.68 0.65 0.74 0.77 0.83 0.92 0.96 1.00 1.01 1.03 1.03 0.97 0.98 0.97 0.98 1.09 1.09 1.10 1.12 1.13 1.11 1.09 1.11 1.10 1.01 0.86 0.83 0.95 0.88 0.77 0.68 0.71 0.74
0.93 0.99 0.96 1.00 0.86 0.87 0.85 0.92 0.83 0.88 0.80 0.79 0.80 0.81 0.73 0.70 0.71 0.74 0.81 0.70 0.69 0.76 0.85 0.85 0.90 0.94 0.95 0.97 1.00 1.06 1.07 1.08 1.10 1.10 1.15 1.12 1.03 1.06 1.06 1.07 1.08 1.08 1.12 1.11 1.14 1.10 1.01 0.89 0.85 0.94 0.88 0.73 0.70 0.68
0.91 0.93 0.89 0.89 0.78 0.81 0.80 0.98 0.81 0.83 0.72 0.75 0.81 0.71 0.73 0.74 0.80 0.89 0.75 0.81 0.85 0.96 1.00 0.99 1.00 1.04 1.00 1.03 1.05 1.04 1.08 1.09 1.10 1.12 1.09 1.09 1.12 1.14 1.13 1.11 1.15 1.12 1.08 1.12 1.19 1.21 1.14 1.14 0.95 0.75 0.74 0.76 0.78 0.76
0.96 0.87 0.81 0.81 0.84 0.76 0.88 0.82 0.90 0.85 0.83 0.77 0.74 0.70 0.74 0.78 0.86 0.77 0.71 0.79 0.91 1.00 1.00 1.01 1.05 1.01 1.01 1.02 1.02 1.07 1.12 1.13 1.11 1.09 1.10 1.07 1.04 1.08 1.16 1.16 1.18 1.19 1.21 1.27 1.23 1.18 1.21 1.25 1.29 1.24 1.21 1.17 1.18 1.15
0.71 0.70 0.78 0.71 0.84 0.78 0.71 0.73 0.74 0.74 0.67 0.72 0.70 0.70 0.74 0.85 0.71 0.69 0.70 0.80 0.91 0.95 0.99 1.03 1.01 1.02 1.00 1.02 1.07 1.09 1.12 1.11 1.11 1.02 1.10 1.08 1.07 1.07 1.11 1.16 1.22 1.25 1.31 1.26 1.26 1.25 1.21 1.29 1.30 1.30 1.32 1.32 1.31 1.32
0.62 0.71 0.69 0.65 0.66 0.69 0.72 0.64 0.63 0.61 0.65 0.64 0.68 0.75 0.78 0.71 0.65 0.64 0.74 0.87 0.94 0.98 1.00 1.02 1.01 1.00 1.03 1.09 1.02 0.98 0.99 1.13 1.09 0.93 1.04 1.07 1.04 1.00 1.03 1.04 1.10 1.18 1.31 1.33 1.29 1.29 1.29 1.37 1.39 1.37 1.33 1.33 1.33 1.34
0.67 0.72 0.83 0.94 0.90 0.83 0.71 0.65 0.64 0.59 0.58 0.56 0.57 0.61 0.64 0.60 0.63 0.76 0.87 0.95 0.98 1.03 1.08 1.09 1.04 1.01 1.03 1.00 0.97 0.95 0.94 0.91 0.88 0.90 1.01 1.04 1.04 1.04 1.05 1.08 1.08 1.19 1.28 1.29 1.29 1.29 1.27 1.31 1.35 1.42 1.42 1.48 1.46 1.51
0.81 0.88 0.79 0.88 0.86 0.88 0.74 0.68 0.68 0.66 0.67 0.72 0.64 0.58 0.60 0.58 0.59 0.79 0.86 0.93 0.99 1.01 1.03 1.03 1.06 1.01 0.93 0.88 0.87 0.87 0.85 0.92 0.93 0.90 0.90 0.94 0.99 1.02 1.04 1.02 1.08 1.14 1.19 1.19 1.20 1.26 1.29 1.27 1.26 1.32 1.36 1.38 1.41 1.49
0.82 0.89 0.92 0.81 0.81 0.80 0.77 0.76 0.73 0.77 0.83 0.73 0.65 0.61 0.67 0.79 0.82 0.80 0.86 0.89 0.91 0.81 0.75 0.74 0.80 0.85 0.81 0.83 0.90 0.92 0.91 0.91 0.81 0.82 0.83 0.81 0.84 0.90 1.00 0.99 1.00 1.01 1.01 1.04 1.11 1.13 1.17 1.19 1.20 1.19 1.20 1.28 1.37 1.42
0.83 0.94 0.87 0.84 0.76 0.79 0.82 0.91 0.90 0.88 0.90 0.87 0.90 0.89 0.82 0.81 0.85 0.94 0.87 0.84 0.82 0.78 0.76 0.73 0.69 0.67 0.69 0.71 0.72 0.73 0.82 0.92 0.92 0.88 0.80 0.81 0.89 0.92 0.91 0.94 0.94 0.93 0.95 0.97 0.98 0.98 1.00 1.02 1.03 1.03 1.05 1.06 1.08 1.13
0.93 0.94 0.89 0.83 0.81 0.87 0.89 0.98 1.01 0.97 0.98 0.92 0.91 0.85 0.79 0.80 0.85 0.86 0.89 0.91 0.87 0.81 0.81 0.81 0.74 0.72 0.70 0.68 0.65 0.61 0.59 0.65 0.73 0.77 0.79 0.84 0.87 0.92 0.95 0.97 0.93 0.92 0.92 0.92 0.91 0.91 0.92 0.92 0.93 0.92 0.91 0.90 0.93 0.94
0.95 0.93 0.88 0.78 0.85 0.97 0.94 0.90 0.88 0.85 0.81 0.74 0.70 0.79 0.78 0.72 0.66 0.69 0.79 0.82 0.80 0.92 0.99 0.94 0.92 0.95 0.90 0.87 0.84 0.83 0.83 0.74 0.71 0.70 0.69 0.66 0.65 0.70 0.78 0.87 0.90 0.92 0.88 0.91 0.86 0.86 0.88 0.86 0.85 0.88 0.88 0.87 0.90 0.91
0.95 0.92 0.92 0.89 0.85 0.82 0.89 0.86 0.86 0.86 0.83 0.75 0.68 0.66 0.68 0.63 0.54 0.64 0.78 0.84 0.83 0.84 1.03 0.96 0.92 1.00 0.98 0.86 0.91 0.96 0.96 0.95 0.91 0.88 0.81 0.74 0.73 0.73 0.75 0.79 0.83 0.83 0.82 0.85 0.82 0.76 0.80 0.81 0.81 0.83 0.88 0.87 0.83 0.83
Wind_Speed
34 33 32 31 30 29 28 27 25 24 23 22 20 19 18 17 16 15 16 15 17 19 23 20 21 23 24 23 23 19 24 25 26 27 30 30 31 31 32 32 30 29 28 29 26 26 28 19 14 11 11 12 12 11
35 34 33 32 31 29 28 27 25 24 23 21 20 19 18 17 16 16 16 16 18 20 22 21 21 23 24 25 24 25 26 23 19 24 26 29 32 30 32 31 33 30 28 28 28 26 25 23 22 15 10 13 13 12
37 35 34 32 31 29 28 26 24 23 21 20 19 18 17 16 16 16 16 16 17 17 18 19 17 16 17 21 24 24 25 23 26 24 26 27 29 28 30 30 31 29 32 24 24 27 26 19 28 21 16 15 14 13
35 34 34 32 30 28 26 24 22 21 20 18 17 16 16 15 15 15 15 14 13 12 12 9 11 14 15 18 20 25 28 27 26 27 28 28 28 27 29 28 25 26 22 30 30 25 21 20 18 21 21 18 17 16
35 34 32 30 28 25 23 21 20 18 17 16 15 15 14 14 13 13 13 12 10 9 10 12 15 16 15 16 19 21 24 28 28 27 29 32 31 30 30 30 32 29 25 23 24 24 28 24 20 25 24 23 21 21
32 31 28 25 22 20 18 17 16 16 15 14 13 12 12 11 11 9 8 8 9 9 9 9 9 12 13 15 16 18 21 24 27 28 28 29 33 33 33 35 36 34 33 31 30 27 27 28 23 21 26 27 26 24
28 26 22 19 16 13 13 12 11 10 10 9 10 10 9 9 9 9 7 7 7 9 9 9 10 8 9 11 13 15 17 19 22 25 29 30 30 31 36 39 36 36 33 32 32 35 35 33 31 29 27 29 26 27
24 21 18 14 11 9 9 8 7 6 6 6 7 7 7 7 8 8 8 10 9 8 8 8 9 9 9 9 10 11 13 15 18 21 24 27 29 32 35 38 38 39 39 38 37 35 36 34 35 36 34 32 32 32
21 18 15 12 9 8 7 5 4 3 3 3 3 3 4 5 5 5 5 6 7 7 8 9 9 7 7 7 7 8 9 10 11 15 18 21 25 27 27 34 32 34 33 33 34 36 37 38 39 40 39 36 36 36
20 17 14 12 10 8 5 4 2 2 2 1 2 2 1 1 3 3 4 5 7 8 9 10 10 8 6 4 4 5 5 8 10 10 12 17 24 28 31 29 24 28 31 32 33 35 36 37 38 39 40 40 40 39
20 17 15 13 11 7 5 4 3 1 2 3 2 1 0 1 1 3 3 4 3 4 4 4 6 5 3 4 4 4 3 4 5 6 8 9 12 17 24 30 31 30 30 33 34 34 36 38 39 40 41 41 41 40
19 18 16 14 11 7 5 5 4 3 3 1 0 1 1 2 2 2 2 1 2 2 2 2 2 2 2 2 3 3 4 4 5 4 6 6 5 5 9 14 18 22 24 26 30 34 37 40 42 44 44 45 43 43
18 17 16 15 14 10 8 7 5 4 3 2 1 0 1 1 1 0 0 1 1 0 2 3 1 1 2 3 4 5 5 6 5 5 6 7 9 6 7 10 14 17 23 28 32 35 38 41 43 45 46 47 47 47
17 16 15 15 15 12 9 8 7 5 4 3 1 1 1 1 1 1 2 2 1 0 2 2 2 3 3 4 5 5 7 7 6 7 7 8 7 10 13 17 22 26 30 33 36 38 40 42 44 46 48 49 49 50
16 14 13 13 14 13 10 8 7 6 5 4 3 2 1 1 0 1 1 1 1 2 2 3 5 5 5 6 6 7 6 7 8 10 11 14 18 21 25 29 32 35 37 38 38 39 40 41 43 45 46 47 49 50
15 12 12 13 12 11 10 8 7 5 4 3 2 2 3 2 2 2 2 3 4 5 6 6 6 6 6 6 5 7 8 10 12 13 19 23 25 28 30 31 33 34 35 36 36 38 39 40 42 44 44 46 48 50
14 11 13 14 13 11 9 8 6 5 4 4 3 3 3 3 3 4 3 3 3 3 3 3 4 5 7 7 7 7 10 13 19 22 24 28 29 29 30 28 27 29 30 33 34 36 39 41 44 45 45 44 47 48
13 13 15 15 13 10 6 6 5 5 5 5 4 5 4 3 3 3 3 2 2 2 3 4 6 6 6 8 9 11 17 21 22 23 25 27 26 26 26 27 27 27 29 31 33 32 31 34 40 45 46 45 43 44
15 15 16 14 12 8 5 4 4 4 4 4 4 5 5 5 4 3 3 3 3 4 5 6 6 7 8 11 14 17 18 19 21 22 23 24 24 26 26 23 23 23 26 23 27 28 30 32 36 39 44 46 44 41
13 14 16 15 13 11 9 7 6 4 4 4 4 5 5 6 6 5 4 3 3 5 5 7 8 10 11 13 14 15 16 17 19 20 21 25 26 25 23 20 18 19 22 24 19 20 22 24 24 31 40 42 41 39
13 14 14 14 14 14 12 12 10 9 8 8 8 7 6 6 6 5 5 5 4 6 7 8 9 11 12 13 13 13 15 16 16 20 22 24 28 23 25 21 18 18 18 19 19 14 13 8 9 16 33 39 37 35
15 15 12 12 12 13 14 14 13 13 10 10 10 9 8 9 9 8 6 6 6 8 8 9 11 11 10 10 9 10 13 16 18 21 22 23 25 25 27 22 15 16 16 15 15 14 11 3 12 17 25 31 30 30
16 16 13 12 12 11 12 13 13 12 11 11 10 10 12 12 11 10 9 9 9 10 12 11 11 11 8 7 9 12 15 17 19 22 23 23 24 26 25 22 17 16 16 16 15 14 14 15 16 19 22 23 24 24
14 14 13 13 13 15 14 13 13 12 11 11 11 11 12 14 14 14 13 14 13 13 15 16 17 14 12 12 13 15 16 17 19 22 22 24 25 25 26 22 18 17 17 17 17 16 14 15 16 17 17 17 17 20
12 14 14 15 13 13 15 16 17 15 16 14 14 15 16 16 16 16 16 16 15 16 15 15 16 16 16 16 17 17 18 18 20 22 21 24 26 25 25 24 21 18 18 18 20 18 16 16 16 16 17 17 18 18
12 15 17 19 18 16 16 18 19 19 16 14 16 14 14 14 16 17 17 15 14 15 15 15 15 15 16 18 17 17 18 18 19 20 22 25 28 27 25 23 22 19 19 19 17 19 20 19 17 16 15 15 16 17
10 12 13 14 15 16 15 17 19 21 19 17 15 14 13 14 15 15 19 19 18 17 17 17 16 15 15 16 18 19 20 20 19 19 21 22 27 30 29 27 25 20 18 19 17 17 20 20 21 22 19 18 19 16
7 8 11 12 12 13 15 15 15 16 18 19 20 19 17 17 17 17 15 18 20 22 19 19 18 18 15 16 18 20 19 21 21 22 22 22 23 26 28 30 30 27 25 22 21 19 14 16 15 17 14 14 15 14
5 8 8 10 9 10 13 14 15 15 14 16 18 19 19 17 19 20 21 19 17 19 22 23 22 20 20 20 19 19 19 20 22 22 23 22 23 22 20 23 25 27 29 28 26 24 22 18 16 14 14 14 15 14
4 6 6 8 8 9 9 11 12 14 14 15 14 14 16 18 19 18 20 19 19 20 20 20 20 21 20 20 20 21 20 20 20 20 19 20 21 22 22 20 18 19 21 22 23 23 24 22 20 21 19 16 13 11
2 3 4 5 7 7 6 9 8 11 15 13 13 13 15 16 16 19 18 19 17 17 17 18 19 19 19 18 19 19 19 20 20 20 19 18 18 20 19 20 20 20 19 19 18 18 18 19 19 19 18 18 17 16
0 1 3 3 4 4 5 6 7 9 11 13 14 13 15 16 16 17 18 18 17 16 18 14 13 18 17 16 16 15 15 18 18 18 19 19 19 18 18 16 17 15 16 17 18 17 17 16 16 16 15 15 14 13
1 2 2 2 2 1 2 3 3 6 9 11 13 15 15 16 16 17 19 18 17 16 14 15 16 14 16 15 13 12 14 13 14 15 15 16 16 16 16 15 14 14 14 13 15 15 15 15 14 14 13 12 12 12
Wind_Direction
311 308 306 303 301 299 296 294 293 289 288 285 283 281 280 278 277 275 273 277 271 263 263 266 261 255 252 247 247 252 245 243 245 239 237 237 237 236 236 237 232 228 226 229 233 229 230 226 245 240 228 218 221 221
309 307 305 302 299 297 294 292 290 286 285 280 279 277 276 275 274 275 272 278 277 266 260 269 263 257 251 250 250 247 248 252 246 239 238 238 236 237 236 237 231 235 229 229 231 234 233 237 238 240 222 210 218 223
307 305 303 301 298 295 292 290 286 285 282 276 275 273 272 271 271 271 274 283 283 270 267 256 260 246 249 249 246 248 245 250 246 245 242 238 236 236 235 235 235 234 231 235 230 230 228 240 231 221 223 218 213 219
309 306 303 299 296 293 290 287 284 282 279 272 270 270 268 268 269 271 271 276 276 270 258 241 256 258 260 252 251 247 248 254 251 247 242 238 238 235 237 237 236 228 235 231 233 232 232 228 216 218 220 224 221 220
312 309 305 300 295 292 288 285 281 281 276 268 265 267 264 265 267 269 265 263 259 258 259 264 274 267 262 261 260 252 250 248 246 246 240 237 237 239 237 236 232 228 231 232 228 235 226 228 229 226 225 226 227 230
317 314 310 305 298 291 288 286 280 277 274 264 262 261 258 259 265 256 252 250 249 261 267 266 276 273 268 268 264 259 253 250 244 243 242 241 239 237 236 235 235 234 236 238 239 236 233 230 239 231 226 228 231 234
325 322 318 313 306 296 294 292 285 277 267 260 258 254 253 254 248 245 245 247 253 269 264 270 272 263 278 277 267 262 256 249 246 244 240 241 240 238 236 236 235 234 236 240 240 237 237 235 238 241 238 236 234 236
336 335 333 327 320 310 306 301 291 279 259 259 255 252 249 249 250 244 247 241 265 261 265 268 268 265 277 279 277 270 261 254 247 245 244 242 239 238 239 238 237 237 239 240 239 239 239 239 241 241 242 239 238 238
349 350 350 347 339 329 320 310 295 275 257 261 246 251 244 230 238 231 234 245 250 262 270 264 270 281 275 280 281 277 268 256 259 250 246 240 236 232 235 234 234 233 233 235 237 237 238 240 242 242 243 243 240 240
357 357 358 356 350 342 337 334 319 289 234 238 191 163 172 179 192 213 261 263 274 275 269 264 262 263 277 276 292 290 283 262 258 255 254 245 244 242 240 240 236 230 229 232 237 238 240 242 242 244 244 243 242 241
5 7 7 5 4 13 30 38 21 24 145 144 149 109 55 163 241 258 270 276 272 277 265 263 236 229 269 260 274 281 287 273 262 260 252 256 253 243 236 233 233 233 238 240 239 241 244 246 246 246 245 243 242 242
11 11 14 17 20 29 33 36 42 73 93 90 301 290 294 297 282 253 259 253 241 297 192 177 171 198 244 257 260 274 279 272 262 271 269 264 280 236 216 212 216 222 226 239 247 249 252 251 248 247 245 245 244 242
15 19 25 27 31 38 39 36 39 51 23 20 296 311 21 103 108 231 112 132 134 76 165 165 175 219 251 263 267 281 273 265 279 263 266 270 276 260 229 224 223 242 254 258 261 259 258 255 250 247 246 244 243 242
15 20 25 26 28 32 39 41 45 36 26 24 33 59 133 137 203 143 33 24 82 121 201 244 259 261 271 275 273 274 272 277 270 265 259 283 297 281 275 270 269 269 269 269 268 265 261 255 251 248 246 243 242 240
11 15 19 23 25 29 30 30 26 26 32 43 56 72 115 34 3 359 327 308 312 318 302 283 275 264 268 275 272 281 277 268 271 280 282 296 292 289 284 282 279 277 276 274 270 264 260 256 252 248 245 241 240 238
3 7 14 8 6 7 9 11 12 22 32 41 41 22 15 345 358 351 326 302 306 300 293 282 284 282 270 279 270 274 287 283 293 306 305 304 302 298 295 290 285 283 280 275 269 264 258 254 250 246 244 242 238 235
357 3 358 1 359 359 2 12 25 39 41 49 45 16 356 336 315 317 320 315 319 314 295 288 286 280 305 292 288 287 291 305 307 308 308 308 304 301 301 294 290 290 285 280 274 266 260 255 249 244 243 241 236 232
355 355 350 344 345 348 359 16 29 39 47 45 37 30 22 9 355 346 346 350 348 330 325 311 311 295 294 297 305 307 306 310 313 317 317 317 315 310 302 300 293 293 294 284 277 270 264 255 247 243 240 235 231 230
352 353 356 358 358 1 6 14 21 23 34 30 25 18 21 15 2 342 341 345 329 329 332 322 307 305 303 311 311 312 316 320 323 325 325 326 324 324 321 313 301 295 304 299 287 276 270 262 256 246 233 225 224 223
14 17 17 19 30 38 43 40 35 30 12 8 9 15 23 12 10 16 4 1 348 335 322 320 314 309 305 311 315 316 321 326 334 339 336 340 339 338 335 328 319 316 320 328 319 288 282 274 256 235 219 212 211 212
24 20 19 34 46 49 49 46 46 45 52 53 48 38 31 24 20 18 12 7 352 352 339 328 321 321 321 322 322 322 326 335 338 339 339 343 348 345 347 334 332 333 332 333 340 325 319 264 232 197 191 195 201 201
25 24 45 51 50 50 49 53 52 49 55 47 42 43 36 30 29 27 28 21 6 358 1 357 343 338 338 345 356 0 355 350 344 346 346 349 355 355 353 354 347 354 353 359 8 13 26 91 165 163 169 178 186 194
34 44 50 50 48 50 45 47 42 44 49 44 51 56 45 42 38 41 39 31 25 26 16 13 11 8 17 27 9 360 356 355 358 1 3 2 4 8 9 14 17 20 25 29 31 41 59 82 125 147 160 172 182 191
45 47 50 53 51 46 50 39 39 41 48 51 45 48 43 38 47 55 49 45 46 47 33 31 34 37 38 24 13 3 3 4 4 6 11 14 15 17 21 23 30 38 39 39 47 56 71 91 107 122 138 155 165 168
51 48 50 42 46 42 47 46 49 53 53 48 51 60 59 61 54 52 47 41 44 38 35 34 29 29 27 25 19 15 17 19 17 15 20 17 19 21 25 31 37 45 49 53 54 59 73 86 100 112 122 130 140 149
56 57 53 47 49 51 49 47 42 48 58 62 55 55 53 52 49 42 33 32 26 24 18 16 15 19 22 21 23 22 21 21 22 24 29 29 27 27 29 31 33 44 53 52 58 63 68 76 87 101 114 121 133 137
56 52 48 45 48 49 52 56 53 51 51 53 52 52 53 51 41 33 31 32 31 25 24 25 28 29 27 28 30 28 30 33 33 33 35 38 37 37 38 38 40 45 46 51 54 56 62 78 79 85 96 95 119 119
50 41 33 37 48 51 48 54 50 47 47 47 50 52 54 46 40 35 33 30 34 34 37 33 34 30 34 36 35 33 40 37 39 38 39 41 41 41 44 46 46 47 49 49 49 51 61 64 73 76 88 95 89 94
53 36 36 43 55 57 50 48 49 50 51 52 53 53 51 49 40 37 36 35 28 32 35 38 40 40 41 41 39 38 36 33 32 31 37 36 35 36 39 42 43 46 49 52 54 57 59 65 67 72 74 83 88 91
47 37 47 48 55 52 50 55 60 54 53 50 49 50 40 38 36 34 30 29 33 32 32 35 36 38 39 39 38 37 36 35 33 33 36 36 34 32 35 37 40 43 46 49 52 54 57 61 65 67 69 70 77 85
58 56 51 57 59 53 56 54 55 38 46 42 40 37 31 26 26 23 22 17 18 20 22 25 28 28 29 31 31 31 32 31 34 36 34 31 30 32 38 39 39 41 44 45 47 49 53 56 59 62 64 66 68 72
79 39 27 43 49 31 38 62 31 38 36 31 29 25 20 15 16 12 10 9 8 12 11 359 3 4 12 13 17 20 22 27 29 29 29 30 30 29 28 29 32 33 39 43 44 45 47 49 50 52 55 58 61 65
303 323 325 330 341 323 359 1 11 7 11 10 11 14 12 11 11 9 7 10 11 10 13 13 7 3 8 357 357 1 6 8 8 11 13 16 20 22 25 25 24 27 28 43 40 42 43 45 47 47 46 48 55 60